sat.trackr.live / text

‹ back to catalog

STARLINK-36659

NORAD 67833 · 2026-033N

PAYLOAD ACTIVE UNKNOWN

§ Identity

Operator
Country
US
Launch date
2026-02-16
Launch site
AFETR
Launch vehicle
Mass (kg)
RCS (m²)

Purposes: comms

External: N2YO · Heavens-Above · Gunter

§ Orbital elements

Epoch: 2026-09-19T16:14:14.748576Z

Period
94.27 min
Inclination
43.0022°
Eccentricity
0.0001181
Mean motion
15.27585787 rev/d
Perigee alt
482.2 km
Apogee alt
483.8 km
Semi-major
6,861.2 km
B*
4.0436e-4
RAAN
251.3483°
Arg perigee
270.9735°
Mean anomaly
89.0981°
Rev number
3,434

§ Raw data

STARLINK-366591 67833U 26033N   26262.67655959  .00010883  00000+0  40436-3 0  99902 67833  43.0022 251.3483 0001181 270.9735  89.0981 15.27585787 34344

JSON: /api/v1/satellites/67833 · /tle

For live sub-satellite position, see the globe view (requires WebGL).

§ Visibility from observer

Set your observer location to see the next 7 days of passes ≥ 10°. The values pass through the URL so the page stays shareable.

No JS? Fill the form by hand. The geolocation button needs JavaScript.